This is the latest recevied weather packets stored in our database for station/object KT2UU-13. If no packets are shown the sender has not sent any weather packets the latest 10 day(s).
| Time | Temp. | Humidity | Pressure | Rain* | Wind** | Luminosity | Snow |
|---|---|---|---|---|---|---|---|
| 1777999768 | 23.33° C | 48% | 1016.8 hPa | 0 mm | - | - | - |
| 1777999465 | 23.33° C | 50% | 1016.5 hPa | 0 mm | - | - | - |
| 1777999163 | 23.89° C | 47% | 1016.6 hPa | 0 mm | - | - | - |
| 1777998862 | 23.89° C | 51% | 1016.8 hPa | 0 mm | - | - | - |
| 1777998561 | 23.89° C | 49% | 1016.7 hPa | 0 mm | - | - | - |
| 1777998256 | 23.33° C | 52% | 1016.5 hPa | 0 mm | - | - | - |
| 1777997953 | 23.89° C | 51% | 1016.3 hPa | 0 mm | - | - | - |
| 1777997650 | 23.33° C | 57% | 1016 hPa | 0 mm | - | - | - |
| 1777997347 | 23.33° C | 52% | 1016.2 hPa | 0 mm | - | - | - |
| 1777997045 | 22.78° C | 53% | 1016.3 hPa | 0 mm | - | - | - |
| 1777996741 | 22.78° C | 55% | 1016.3 hPa | 0 mm | - | - | - |
| 1777996437 | 22.78° C | 56% | 1016.4 hPa | 0 mm | - | - | - |
| 1777996134 | 22.22° C | 60% | 1016.6 hPa | 0 mm | - | - | - |
| 1777995830 | 21.67° C | 59% | 1016.7 hPa | 0 mm | - | - | - |
| 1777995527 | 21.67° C | 61% | 1016.9 hPa | 0 mm | - | - | - |
| 1777995224 | 21.67° C | 60% | 1016.8 hPa | 0 mm | - | - | - |
| 1777994920 | 21.67° C | 63% | 1017.1 hPa | 0 mm | - | - | - |
| 1777994618 | 21.67° C | 63% | 1017 hPa | 0 mm | - | - | - |
| 1777994312 | 21.11° C | 65% | 1016.8 hPa | 0 mm | - | - | - |
| 1777994008 | 21.67° C | 61% | 1016.8 hPa | 0 mm | - | - | - |
| 1777993705 | 21.11° C | 63% | 1016.9 hPa | 0 mm | - | - | - |
| 1777993402 | 21.11° C | 61% | 1016.6 hPa | 0 mm | - | - | - |
| 1777993097 | 21.67° C | 65% | 1016.6 hPa | 0 mm | - | - | - |
| 1777992796 | 21.67° C | 61% | 1016.8 hPa | 0 mm | - | - | - |
| 1777992493 | 20.56° C | 63% | 1017.1 hPa | 0 mm | - | - | - |
* Rain latest hour (hover to see other rain measurements)
** Current wind speed in m/s (hover to see current wind gust speed)